星链-2382 (STARLINK-2382 )

导读 | 星芒AI

STARLINK-2382 是 SpaceX Starlink 项目中的一颗低轨通信卫星,属于第二代星链卫星群。该卫星于2023年发射,旨在为全球用户提供高速、低延迟的互联网服务。它运行在约550公里高的近地轨道,采用先进推进系统和激光通信技术,以提高网络效率和稳定性。STARLINK-2382 的部署有助于扩展 Starlink 在偏远和农村地区的覆盖能力,支持更多用户接入高速互联网。

基本信息
目录编号:
47801
目录名称:
STARLINK-2382
国际标识:
2021-018Q
轨道中心:
EARTH
卫星名称:
星链-2382
卫星全名:
星链-2382 (STARLINK-2382 )
卫星状态:
已陨落 最后检测时间 2024-08-27
发射日期:
2021-03-11 UTC
国别 :
美国 (US)
星等 :
--
轨道信息
数据来源 国际轨道数据
星历时间: 2024-08-27T23:40:03+0800
轨道信息已过期431天
半长轴: 6597.417km
偏心率: 0.0006924
轨道倾角: 53.039°
近地点辐角 203.320°
升交点赤经 154.349°
平近点角 255.092°
近地点: 214.713km
远地点: 223.851km
周期: 88.883分钟
每日圈数: 16.201005
详细信息
固有亮度:
5
最大亮度:
2.5
卫星平台:
Starlink V1.0
覆盖范围:
全球
运营商:
太空探索技术公司
运营商所在国:
美国
制造商(研发单位):
太空探索技术公司
制造商所在国:
美国
使用方式:
暂无
卫星简介
星链(Starlink)计划是由太空探索技术公司(SpaceX)提出的一个巨型低轨卫星互联网星座项目,计划在2019年至2024年间在太空搭建由约1.2万颗卫星组成的“星链”网络,其中1584颗将部署在地球上空550千米处的近地轨道,并从2020年开始工作。该卫星仍在工作。